FALCON 9 DEB (53235 NORAD) Tracking and Keplerian Element Data

This shows tracking and keplerian element data for the satellite.

Feedback or suggestion? Click here.




ElementValue
Catalog53235
NameFALCON 9 DEB
Epoch Orbit722
Epoch Day248.17062507
Epoch Year2022
RAAN311.2942
Inclination97.6754
Eccentricity0.0005511
Argument of Perigee138.1501
Mean Anonmoly222.0199
Mean Motion16.00415223
Decay Rate0.00437637
L11 53235U 22084AY 22248.17062507 .00437637 84920-4 84399-3 0 9993
L22 53235 97.6754 311.2942 0005511 138.1501 222.0199 16.00415223 7221

Live tracking and technical data element details for FALCON 9 DEB (NORAD 53235). FALCON 9 DEB can be tracked NOW for your location showing map with azimuth and elevation plus other details from your city location.

Track the satellite on the map from your city or location and see movement details for azimuth, elevation, latitude, longitude, range, height, and movement on the map or in text.







IsCatalogInMostPopularTable: catalog: 53235, numindb: 7
Update: records affected: 1



GetName: 53235 FALCON 9 DEB

Hit Count: updated at: Wed, 28 Sep 2022 21:52:57 GMT